N2RDT Weather Reports


time (UTC)temp
F
wind
direction
speed
knots
gust
knots
rain 1hr
in
rain 24hr
in
rain mn
in
humidity
%
barometer
mb
20260505181839 79 140 6.1 7.0 0.00 0.00 0.00 40 1016.4
20260505181336 79 115 5.2 5.2 0.00 0.00 0.00 41 1016.6
20260505180833 79 144 7.8 8.7 0.00 0.00 0.00 41 1016.6
20260505180329 79 144 7.8 8.7 0.00 0.00 0.00 41 1016.6
20260505175826 79 144 7.8 8.7 0.00 0.00 0.00 41 1016.7
20260505175322 79 115 4.3 12.2 0.00 0.00 0.00 41 1016.6
20260505174819 78 96 2.6 7.0 0.00 0.00 0.00 43 1016.6
20260505174317 79 140 5.2 7.0 0.00 0.00 0.00 39 1016.6
20260505173812 79 109 5.2 7.8 0.00 0.00 0.00 41 1016.6
20260505173309 78 109 1.7 5.2 0.00 0.00 0.00 41 1016.6
20260505172806 78 137 10.4 12.2 0.00 0.00 0.00 38 1016.7
20260505172305 79 127 7.8 11.3 0.00 0.00 0.00 40 1016.7
20260505171758 78 176 6.1 8.7 0.00 0.00 0.00 41 1016.6
20260505171255 78 82 6.1 7.8 0.00 0.00 0.00 44 1016.6
20260505170751 77 106 3.5 9.6 0.00 0.00 0.00 42 1016.9
20260505170249 78 116 4.3 8.7 0.00 0.00 0.00 43 1017.1
20260505165744 78 87 2.6 6.1 0.00 0.00 0.00 46 1016.7
20260505165240 77 89 3.5 7.8 0.00 0.00 0.00 43 1017.0
20260505164736 78 101 1.7 8.7 0.00 0.00 0.00 43 1017.2
20260505164234 78 82 2.6 7.8 0.00 0.00 0.00 46 1017.0
20260505163732 77 107 0.9 4.3 0.00 0.00 0.00 45 1017.1
20260505163230 77 107 7.0 7.8 0.00 0.00 0.00 44 1017.2
20260505162727 77 174 6.1 8.7 0.00 0.00 0.00 45 1017.2
20260505162224 77 92 6.1 7.8 0.00 0.00 0.00 45 1017.0
20260505161721 77 92 6.1 7.8 0.00 0.00 0.00 45 1017.2
20260505161219 77 92 6.1 7.8 0.00 0.00 0.00 45 1017.4
20260505160716 77 92 6.1 7.8 0.00 0.00 0.00 45 1017.4
20260505160214 77 135 5.2 5.2 0.00 0.00 0.00 47 1017.4
20260505153152 75 189 7.8 11.3 0.00 0.00 0.00 47 1017.7
20260505152649 74 140 2.6 7.0 0.00 0.00 0.00 50 1017.8
20260505152145 75 108 2.6 7.0 0.00 0.00 0.00 49 1017.8
20260505151640 74 90 6.1 8.7 0.00 0.00 0.00 51 1017.7
20260505151138 74 114 4.3 5.2 0.00 0.00 0.00 51 1017.7
20260505150634 74 116 3.5 7.8 0.00 0.00 0.00 52 1017.8
20260505150131 73 109 4.3 5.2 0.00 0.00 0.00 53 1017.7
20260505140559 70 162 7.8 10.4 0.00 0.00 0.00 57 1017.5
20260505125013 64 130 1.7 7.0 0.00 0.00 0.00 66 1017.6
20260505124510 64 121 2.6 5.2 0.00 0.00 0.00 66 1017.7
20260505124006 63 141 4.3 10.4 0.00 0.00 0.00 66 1017.7
20260505123502 63 125 5.2 7.0 0.00 0.00 0.00 66 1017.9
20260505122959 63 96 2.6 6.1 0.00 0.00 0.00 67 1017.7
20260505122456 62 101 1.7 6.1 0.00 0.00 0.00 67 1017.7
20260505121953 62 130 4.3 8.7 0.00 0.00 0.00 67 1017.7
20260505121449 62 77 0.9 5.2 0.00 0.00 0.00 69 1017.8
20260505120945 61 170 5.2 5.2 0.00 0.00 0.00 69 1017.8
20260505120442 61 123 3.5 5.2 0.00 0.00 0.00 69 1017.6
20260505115941 61 87 1.7 5.2 0.00 0.00 0.00 70 1017.6
20260505115437 61 128 3.5 5.2 0.00 0.00 0.00 70 1017.6
20260505114936 60 115 0.0 4.3 0.00 0.00 0.00 70 1017.5
20260505114432 59 113 3.5 3.5 0.00 0.00 0.00 73 1017.6
20260505113928 59 113 3.5 3.5 0.00 0.00 0.00 73 1017.5
20260505113425 59 113 3.5 3.5 0.00 0.00 0.00 73 1017.6
20260505112921 59 113 3.5 3.5 0.00 0.00 0.00 73 1017.5
20260505112419 57 74 1.7 1.7 0.00 0.00 0.00 75 1017.3
20260505111915 57 74 1.7 1.7 0.00 0.00 0.00 75 1017.3
20260505111415 57 113 1.7 3.5 0.00 0.00 0.00 75 1017.1
20260505110911 57 82 1.7 4.3 0.00 0.00 0.00 76 1017.1
20260505110408 56 85 2.6 3.5 0.00 0.00 0.00 76 1017.0
20260505101838 55 111 2.6 3.5 0.00 0.00 0.00 76 1016.5
20260505101334 56 109 3.5 3.5 0.00 0.00 0.00 76 1016.6
20260505100830 56 88 1.7 3.5 0.00 0.00 0.00 75 1016.6
20260505100327 56 103 2.6 4.3 0.00 0.00 0.00 75 1016.4
20260505095822 56 115 2.6 3.5 0.00 0.00 0.00 74 1016.1
20260505095320 56 110 1.7 3.5 0.00 0.00 0.00 74 1016.2
20260505094816 57 87 3.5 5.2 0.00 0.00 0.00 73 1016.0
20260505094313 56 95 1.7 5.2 0.00 0.00 0.00 74 1016.0
20260505093808 57 108 2.6 4.3 0.00 0.00 0.00 73 1016.1
20260505093307 57 98 2.6 3.5 0.00 0.00 0.00 73 1016.1
20260505092803 57 106 1.7 7.0 0.00 0.00 0.00 73 1016.1
20260505092304 57 103 1.7 3.5 0.00 0.00 0.00 73 1016.1
20260505091759 57 107 2.6 4.3 0.00 0.00 0.00 73 1016.2
20260505091256 57 129 4.3 5.2 0.00 0.00 0.00 72 1016.0
20260505090754 57 106 1.7 5.2 0.00 0.00 0.00 72 1016.0
20260505090252 57 124 4.3 4.3 0.00 0.00 0.00 72 1016.1
20260505085749 57 104 2.6 3.5 0.00 0.00 0.00 72 1016.1
20260505085247 57 98 2.6 5.2 0.00 0.00 0.00 72 1016.0
20260505084744 57 97 2.6 5.2 0.00 0.00 0.00 72 1015.9
20260505084243 57 90 1.7 4.3 0.00 0.00 0.00 71 1015.9
20260505083740 58 80 1.7 6.1 0.00 0.00 0.00 70 1015.8
20260505083236 58 112 3.5 4.3 0.00 0.00 0.00 70 1016.0
20260505082732 58 93 1.7 3.5 0.00 0.00 0.00 70 1016.0
20260505082230 58 135 1.7 4.3 0.00 0.00 0.00 70 1015.9
20260505081725 58 103 1.7 5.2 0.00 0.00 0.00 70 1015.8
20260505081223 58 94 1.7 5.2 0.00 0.00 0.00 70 1015.8
20260505080720 58 111 3.5 3.5 0.00 0.00 0.00 69 1015.8
20260505080215 58 90 2.6 5.2 0.00 0.00 0.00 69 1015.8
20260505075711 59 107 2.6 5.2 0.00 0.00 0.00 68 1015.8
20260505075209 59 120 3.5 5.2 0.00 0.00 0.00 68 1015.8
20260505074706 59 122 5.2 5.2 0.00 0.00 0.00 68 1015.7
20260505074203 59 102 3.5 7.0 0.00 0.00 0.00 68 1015.6
20260505073700 59 103 2.6 5.2 0.00 0.00 0.00 68 1015.7
20260505073158 59 116 3.5 4.3 0.00 0.00 0.00 68 1015.6
20260505072654 59 77 0.9 6.1 0.00 0.00 0.00 67 1015.6
20260505072151 59 120 4.3 5.2 0.00 0.00 0.00 67 1015.5
20260505071646 60 106 6.1 7.0 0.00 0.00 0.00 67 1015.6
20260505071144 60 123 2.6 4.3 0.00 0.00 0.00 67 1015.6
20260505070641 60 101 1.7 7.0 0.00 0.00 0.00 67 1015.6
20260505070137 60 133 6.1 7.0 0.00 0.00 0.00 67 1015.6
20260505065633 60 112 2.6 6.1 0.00 0.00 0.00 66 1015.6
20260505065130 60 99 1.7 4.3 0.00 0.00 0.00 66 1015.6
20260505064627 60 108 2.6 7.0 0.00 0.00 0.00 66 1015.6
20260505064125 60 99 2.6 7.8 0.00 0.00 0.00 65 1015.5
20260505063622 61 115 2.6 8.7 0.00 0.00 0.00 65 1015.6
20260505063118 61 126 3.5 6.1 0.00 0.00 0.00 65 1015.6
20260505062615 61 109 2.6 3.5 0.00 0.00 0.00 64 1015.6
20260505062112 61 135 5.2 7.8 0.00 0.00 0.00 64 1015.7
20260505061609 61 87 1.7 7.8 0.00 0.00 0.00 63 1015.5
20260505061108 61 127 2.6 8.7 0.00 0.00 0.00 64 1015.5
20260505060605 61 123 4.3 9.6 0.00 0.00 0.00 64 1015.7
20260505055556 62 112 3.5 7.8 0.00 0.00 0.00 63 1015.7
20260505055053 62 109 3.5 5.2 0.00 0.00 0.00 63 1015.6
20260505054550 62 105 3.5 8.7 0.00 0.00 0.00 63 1015.5
20260505054049 62 148 1.7 7.0 0.00 0.00 0.00 63 1015.5
20260505053545 62 131 6.1 11.3 0.00 0.00 0.00 62 1015.7
20260505053042 62 102 4.3 6.1 0.00 0.00 0.00 63 1015.7
20260505052539 62 111 4.3 11.3 0.00 0.00 0.00 62 1015.8
20260505052037 62 119 3.5 6.1 0.00 0.00 0.00 63 1015.8
20260505051533 62 119 3.5 7.8 0.00 0.00 0.00 62 1015.7
20260505051032 62 98 1.7 7.8 0.00 0.00 0.00 63 1015.7
20260505050529 62 80 4.3 8.7 0.00 0.00 0.00 62 1015.8
20260505041457 64 114 3.5 5.2 0.00 0.00 0.00 61 1015.6
20260505040954 64 112 6.1 10.4 0.00 0.00 0.00 60 1015.7
20260505040452 64 103 3.5 8.7 0.00 0.00 0.00 60 1015.6
20260505035948 64 103 5.2 7.0 0.00 0.00 0.00 60 1015.7
20260505035444 64 102 7.0 8.7 0.00 0.00 0.00 60 1015.7
20260505034942 64 124 4.3 7.0 0.00 0.00 0.00 60 1015.6
20260505034438 64 102 4.3 7.0 0.00 0.00 0.00 59 1015.8
20260505033935 65 129 2.6 11.3 0.00 0.00 0.00 59 1015.5
20260505033432 65 107 2.6 5.2 0.00 0.00 0.00 59 1015.4
20260505032930 65 103 6.1 7.8 0.00 0.00 0.00 59 1015.6
20260505032427 65 75 3.5 7.8 0.00 0.00 0.00 59 1015.6
20260505031923 65 112 5.2 11.3 0.00 0.00 0.00 58 1015.5
20260505031420 66 89 3.5 13.0 0.00 0.00 0.00 58 1015.6
20260505030917 66 87 5.2 7.0 0.00 0.00 0.00 58 1015.5
20260505030413 66 96 3.5 9.6 0.00 0.00 0.00 58 1015.4
20260505025909 66 124 6.1 7.8 0.00 0.00 0.00 58 1015.6
20260505025406 66 103 2.6 11.3 0.00 0.00 0.00 58 1015.4
20260505024905 66 88 2.6 7.8 0.00 0.00 0.00 58 1015.6
20260505024402 66 102 1.7 5.2 0.00 0.00 0.00 57 1015.3
20260505023859 67 135 10.4 13.0 0.00 0.00 0.00 57 1015.5
20260505023356 67 115 3.5 7.8 0.00 0.00 0.00 56 1015.5
20260505022853 67 87 5.2 10.4 0.00 0.00 0.00 55 1015.5
20260505022350 67 113 7.0 7.8 0.00 0.00 0.00 54 1015.5
20260505021848 67 115 4.3 7.8 0.00 0.00 0.00 53 1015.3
20260505021344 67 80 3.5 6.1 0.00 0.00 0.00 52 1015.3
20260505020840 68 131 7.0 8.7 0.00 0.00 0.00 51 1015.3
20260505020336 68 82 3.5 8.7 0.00 0.00 0.00 50 1015.3
20260505015833 68 111 3.5 8.7 0.00 0.00 0.00 49 1015.1
20260505015330 68 109 3.5 5.2 0.00 0.00 0.00 45 1015.0
20260505014827 68 73 5.2 7.0 0.00 0.00 0.00 45 1015.1
20260505014324 68 86 2.6 5.2 0.00 0.00 0.00 45 1015.2
20260505013820 67 92 2.6 4.3 0.00 0.00 0.00 45 1014.9
20260505013318 68 95 1.7 5.2 0.00 0.00 0.00 45 1014.8
20260505012816 68 110 2.6 5.2 0.00 0.00 0.00 45 1014.7
20260505012314 68 86 1.7 3.5 0.00 0.00 0.00 45 1014.8
20260505011809 68 83 2.6 3.5 0.00 0.00 0.00 45 1014.7
20260505011306 68 97 2.6 6.1 0.00 0.00 0.00 44 1014.7
20260505010802 67 109 1.7 3.5 0.00 0.00 0.00 45 1014.4
20260505010258 68 93 2.6 3.5 0.00 0.00 0.00 45 1014.5
20260505005754 68 107 1.7 4.3 0.00 0.00 0.00 45 1014.5
20260505005252 67 93 0.9 2.6 0.00 0.00 0.00 46 1014.4
20260505004749 68 95 1.7 2.6 0.00 0.00 0.00 45 1014.3
20260505004245 68 70 1.7 2.6 0.00 0.00 0.00 45 1014.4
20260505003742 69 122 1.7 3.5 0.00 0.00 0.00 43 1014.2
20260505003240 69 84 0.9 3.5 0.00 0.00 0.00 43 1014.3
20260505002736 69 86 2.6 2.6 0.00 0.00 0.00 43 1014.4
20260505002234 69 83 1.7 2.6 0.00 0.00 0.00 42 1014.1
20260505001731 70 105 1.7 2.6 0.00 0.00 0.00 41 1014.0
20260505001229 71 93 1.7 2.6 0.00 0.00 0.00 40 1014.0
20260505000725 71 82 2.6 3.5 0.00 0.00 0.00 39 1014.0
20260505000226 71 104 1.7 2.6 0.00 0.00 0.00 39 1013.9
20260504235719 72 112 1.7 2.6 0.00 0.00 0.00 38 1013.9
20260504235215 72 83 0.9 3.5 0.00 0.00 0.00 38 1014.0
20260504234713 73 87 3.5 3.5 0.00 0.00 0.00 37 1013.7
20260504234210 73 99 1.7 3.5 0.00 0.00 0.00 36 1013.8
20260504233706 74 84 2.6 2.6 0.00 0.00 0.00 36 1013.7
20260504233202 75 122 1.7 2.6 0.00 0.00 0.00 33 1013.5
20260504232700 75 116 0.9 3.5 0.00 0.00 0.00 33 1013.7
20260504232156 76 146 1.7 4.3 0.00 0.00 0.00 32 1013.5
20260504231653 76 126 3.5 3.5 0.00 0.00 0.00 30 1013.4
20260504231150 76 151 3.5 7.0 0.00 0.00 0.00 30 1013.6
20260504230646 76 111 2.6 6.1 0.00 0.00 0.00 30 1013.6
20260504230145 77 134 4.3 9.6 0.00 0.00 0.00 29 1013.6
20260504225643 78 122 4.3 5.2 0.00 0.00 0.00 28 1013.7
20260504225138 79 133 2.6 3.5 0.00 0.00 0.00 29 1013.4
20260504224635 79 142 2.6 5.2 0.00 0.00 0.00 29 1013.7
20260504224132 79 134 2.6 5.2 0.00 0.00 0.00 29 1013.6
20260504223629 79 112 2.6 6.1 0.00 0.00 0.00 29 1013.7
20260504223125 79 121 1.7 7.8 0.00 0.00 0.00 30 1013.7
20260504222622 78 115 2.6 10.4 0.00 0.00 0.00 29 1013.6
20260504222120 79 187 2.6 7.0 0.00 0.00 0.00 29 1013.7
20260504221616 79 106 2.6 10.4 0.00 0.00 0.00 29 1013.6
20260504221114 79 82 2.6 3.5 0.00 0.00 0.00 28 1013.5
20260504220610 79 134 4.3 8.7 0.00 0.00 0.00 29 1013.6
20260504220108 79 163 7.0 7.8 0.00 0.00 0.00 29 1013.7
20260504215603 79 144 4.3 7.8 0.00 0.00 0.00 29 1013.7
20260504215101 80 162 6.1 7.0 0.00 0.00 0.00 29 1013.5
20260504214557 79 174 7.8 9.6 0.00 0.00 0.00 29 1013.8
20260504214053 80 129 5.2 7.0 0.00 0.00 0.00 29 1013.7
20260504213550 79 140 2.6 6.1 0.00 0.00 0.00 31 1013.8
20260504213047 80 108 6.1 9.6 0.00 0.00 0.00 29 1013.8
20260504212543 80 136 3.5 5.2 0.00 0.00 0.00 28 1013.9
20260504212040 80 140 7.0 8.7 0.00 0.00 0.00 29 1013.7
20260504211537 80 148 3.5 7.8 0.00 0.00 0.00 29 1013.6
20260504211034 80 175 5.2 9.6 0.00 0.00 0.00 29 1013.6
20260504210531 80 107 3.5 7.8 0.00 0.00 0.00 30 1013.7
20260504210027 80 140 4.3 7.0 0.00 0.00 0.00 30 1013.9
20260504205526 79 117 1.7 5.2 0.00 0.00 0.00 32 1013.8
20260504205023 79 102 2.6 7.8 0.00 0.00 0.00 29 1013.7
20260504204521 79 146 5.2 7.8 0.00 0.00 0.00 30 1014.0
20260504204020 80 149 7.0 7.0 0.00 0.00 0.00 29 1014.0
20260504203518 79 214 2.6 11.3 0.00 0.00 0.00 28 1014.1
20260504203015 79 110 1.7 13.0 0.00 0.00 0.00 32 1014.0
20260504202510 79 182 4.3 7.0 0.00 0.00 0.00 31 1014.2
20260504202007 79 193 2.6 7.0 0.00 0.00 0.00 33 1014.2
20260504201504 79 148 4.3 7.8 0.00 0.00 0.00 32 1014.2
20260504201002 79 131 3.5 8.7 0.00 0.00 0.00 32 1014.1
20260504200458 78 137 9.6 9.6 0.00 0.00 0.00 30 1014.3
20260504195955 78 173 4.3 12.2 0.00 0.00 0.00 30 1014.2
20260504195451 78 183 7.0 12.2 0.00 0.00 0.00 31 1014.2
20260504194948 78 204 4.3 12.2 0.00 0.00 0.00 31 1014.3
20260504194444 78 184 6.1 6.1 0.00 0.00 0.00 31 1014.4
20260504193940 77 196 4.3 7.8 0.00 0.00 0.00 33 1014.6
20260504193437 78 146 9.6 13.9 0.00 0.00 0.00 30 1014.7
20260504192936 78 174 5.2 11.3 0.00 0.00 0.00 31 1014.7
20260504192432 77 168 4.3 9.6 0.00 0.00 0.00 31 1014.6
20260504191932 77 142 6.1 9.6 0.00 0.00 0.00 30 1014.6
20260504191430 77 150 2.6 9.6 0.00 0.00 0.00 29 1014.6
20260504190930 77 124 4.3 8.7 0.00 0.00 0.00 30 1014.6
20260504190425 77 139 8.7 9.6 0.00 0.00 0.00 31 1014.8
20260504185923 77 174 5.2 7.8 0.00 0.00 0.00 32 1014.9
20260504185420 77 118 7.8 14.8 0.00 0.00 0.00 31 1014.9
20260504184915 76 151 5.2 5.2 0.00 0.00 0.00 32 1014.8
20260504184411 75 150 5.2 6.1 0.00 0.00 0.00 30 1015.0
20260504183908 76 208 1.7 8.7 0.00 0.00 0.00 32 1014.8
20260504183405 77 134 4.3 8.7 0.00 0.00 0.00 33 1015.1
20260504182903 77 137 1.7 10.4 0.00 0.00 0.00 30 1015.1
20260504182400 76 119 2.6 5.2 0.00 0.00 0.00 32 1015.3